Vineland (AU8), Ontario

9:14 AM EDT on June 27, 2017 (GMT -0400)
Vineland (AU8)

Weather History for CXVN - November, 2013

Change the Weather History Date:

Friday, November 1, 2013

  Actual Average (CYSN) Record (CYSN)
Temperature  
Mean Temperature 56 °F -  
Max Temperature 64 °F 50 °F 69 °F (2016)
Min Temperature 49 °F 38 °F 28 °F (2002)
Degree Days  
Heating Degree Days 8    
Growing Degree Days 6 (Base 50)    
Moisture  
Dew Point 47 °F    
Average Humidity 69    
Maximum Humidity 88    
Minimum Humidity 50    
Precipitation  
Precipitation 0.12 in - - ()
Sea Level Pressure  
Sea Level Pressure 29.37 in    
Wind  
Wind Speed 19 mph ()    
Max Wind Speed 31 mph    
Max Gust Speed 46 mph    
Averages and records for this station are not official NWS values.
T = Trace of Precipitation, MM = Missing Value Source: Averaged Metar Reports

Daily Weather History Graph

Daily Weather History Graph

Search for Another Location

Airport or City:

Trip Planner

Search our weather history database for the weather conditions in past years. The results will help you decide how hot, cold, wet, or windy it might be!

Date:

Astronomy

Nov. 01, 2013 Rise Set
Actual Time 7:52 AM EDT 6:08 PM EDT
Civil Twilight 7:23 AM EDT 6:38 PM EDT
Nautical Twilight 6:49 AM EDT 7:12 PM EDT
Astronomical Twilight 6:16 AM EDT 7:45 PM EDT
Moon 5:40 AM EDT (11/1) 5:03 PM EDT (11/1)
Length of Visible Light 11h 15m
Length of Day
10h 16m
Waning Crescent, 4% of the Moon is Illuminated
Nov 1
Waning Crescent
Nov 3
New
Nov 10
First Quarter
Nov 17
Full
Nov 25
Last Quarter

Hourly Weather History & Observations

Time (EDT) Temp. Dew Point Humidity Pressure Visibility Wind Dir Wind Speed Gust Speed Precip Events Conditions
12:00 AM 62.6 °F 56.8 °F 81% 29.24 in - SSW 21.9 mph 29.9 mph N/A   Unknown
1:00 AM 60.8 °F 57.4 °F 88% 29.19 in - SSW 21.9 mph 32.2 mph 0.06 in   Unknown
2:00 AM 63 °F 57 °F 74% 29.14 in - SSW 19.6 mph - -  
2:00 AM 63.0 °F 56.7 °F 80% 29.14 in - SSW 19.6 mph 28.8 mph 0.01 in   Unknown
3:00 AM 63.5 °F 56.8 °F 79% 29.11 in - SW 23.0 mph 34.5 mph 0.01 in   Unknown
4:00 AM 61.5 °F 57.6 °F 87% 29.13 in - SW 20.7 mph 32.2 mph 0.07 in   Unknown
5:00 AM 61.5 °F 56.5 °F 83% 29.08 in - SW 26.5 mph 41.4 mph 0.02 in   Unknown
6:00 AM 61.0 °F 53.8 °F 77% 29.13 in - WSW 25.3 mph 36.8 mph N/A   Unknown
7:00 AM 59.5 °F 51.3 °F 74% 29.18 in - WSW 24.2 mph 35.7 mph N/A   Unknown
8:00 AM 58 °F 47 °F 57% 29.24 in - WSW 27.6 mph - -  
8:00 AM 57.6 °F 46.8 °F 67% 29.24 in - WSW 27.6 mph 38.0 mph N/A   Unknown
9:00 AM 56.3 °F 45.3 °F 67% 29.29 in - WSW 20.7 mph 32.2 mph N/A   Unknown
10:00 AM 55.8 °F 42.8 °F 62% 29.32 in - WSW 25.3 mph 42.6 mph N/A   Unknown
11:00 AM 56.3 °F 43.7 °F 63% 29.34 in - WSW 27.6 mph 46.0 mph N/A   Unknown
12:00 PM 55.2 °F 41.7 °F 60% 29.39 in - West 31.1 mph 42.6 mph N/A   Unknown
1:00 PM 54.7 °F 41.5 °F 61% 29.44 in - WSW 24.2 mph 35.7 mph N/A   Unknown
2:00 PM 54 °F 41 °F 50% 29.45 in - WSW 24.2 mph - -  
2:00 PM 54.3 °F 40.8 °F 60% 29.45 in - WSW 24.2 mph 33.4 mph N/A   Unknown
3:00 PM 53.6 °F 41.0 °F 62% 29.50 in - WSW 18.4 mph 28.8 mph N/A   Unknown
4:00 PM 52.9 °F 40.1 °F 62% 29.53 in - West 18.4 mph 26.5 mph N/A   Unknown
5:00 PM 53.1 °F 41.2 °F 64% 29.55 in - West 12.7 mph 18.4 mph N/A   Unknown
6:00 PM 52.5 °F 41.4 °F 66% 29.56 in - West 11.5 mph 18.4 mph N/A   Unknown
7:00 PM 52.0 °F 41.5 °F 68% 29.59 in - West 10.4 mph - N/A   Unknown
8:00 PM 52 °F 42 °F 58% 29.61 in - WSW 10.4 mph - -  
8:00 PM 51.8 °F 41.7 °F 68% 29.61 in - WSW 10.4 mph - N/A   Unknown
9:00 PM 51.1 °F 41.9 °F 71% 29.61 in - SW 9.2 mph - N/A   Unknown
10:00 PM 49.5 °F 41.9 °F 75% 29.62 in - SW 10.4 mph - N/A   Unknown
11:00 PM 49.1 °F 41.7 °F 76% 29.62 in - SW 8.1 mph - N/A   Unknown